Regional Weather Roundup
Issued by NWS

Home | Current Version | Previous Version | Graphics & Text | Print | Product List | Glossary On
Versions: 1 2 3 4 5 6 7 8 9 10 11 12 13 14 15 16 17 18 19 20 21 22 23 24 25 26 27 28 29 30 31 32 33 34 35 36 37 38 39 40 41 42 43 44 45 46 47 48 49 50
058
ASUS45 KSLC 221110
RWRUT

UTAH REGIONAL WEATHER ROUNDUP
NATIONAL WEATHER SERVICE SALT LAKE CITY UT
500 AM MDT TUE AUG 22 2017

UTZ001>011-023>025-221200-

NORTHERN UTAH

CITY           SKY/WX    TMP DP  RH WIND       PRES   REMARKS
BRIGHAM CITY   CLEAR     59  38  44 CALM      30.17S
DUGWAY         MOCLDY    66  40  38 E3        30.15
HILL AFB       PTCLDY    65  40  39 E15       30.19R
LOGAN          CLEAR     51  43  74 CALM      30.20S
OGDEN          CLEAR     65  42  43 S10       30.17R
SALT LAKE CITY PTCLDY    72  45  37 SE5       30.14F
TOOELE VALLEY  PTCLDY    63  45  51 SE8       30.17R
WENDOVER       PTCLDY    68  36  30 W5        30.14S
HEBER CITY     MOCLDY    55  45  67 CALM      30.27S
WEST JORDAN    PTCLDY    70  53  54 SW7       30.18S

$$

UTZ011>015-024>027-221200-

CENTRAL/NORTHEAST UTAH

CITY           SKY/WX    TMP DP  RH WIND       PRES   REMARKS
PROVO AIRPORT  NOT AVBL
MOAB/CANYONLAN MOCLDY    71  41  33 N5        30.16S
DELTA          CLOUDY    70  43  37 NE5       30.19R
PRICE          MOCLDY    66  39  37 N8        30.25S
RICHFIELD      PTCLDY    57  54  88 CALM      30.30R
ROOSEVELT      CLEAR     59  43  55 W6        30.24R
VERNAL         CLOUDY    56  42  59 W5        30.23R

$$

UTZ013>016-019>022-027-221200-

SOUTHERN UTAH

CITY           SKY/WX    TMP DP  RH WIND       PRES   REMARKS
BRYCE CANYON   CLOUDY    54  50  86 W9        30.43S
CEDAR CITY     CLOUDY    56  51  84 CALM      30.27R
MILFORD        MOCLDY    64  49  57 W3        30.22S
ST GEORGE      PTSUNNY   77  54  44 SE17      30.12R
HANKSVILLE     PTCLDY    64  37  36 E5        30.19R
KANAB          MOCLDY    63  57  82 SW5       30.32R
BLANDING       MOCLDY    64  46  51 NE5       30.37S

$$

REGIONAL REPORTS     COLORADO/ARIZONA

CITY           SKY/WX    TMP DP  RH WIND       PRES   REMARKS
CRAIG, CO      CLOUDY    44  35  70 CALM      30.32S
GRAND JUNCTION PTCLDY    68  44  42 E14       30.20S
RIFLE, CO      CLOUDY    57  40  52 E5        30.28R
MONTROSE, CO   CLEAR     60  44  55 S8        30.31S
CORTEZ, CO     CLOUDY    56  54  93 NE8       30.31S
COLORADO CITY  DRIZZLE   66  55  68 S9G17     30.30R
PAGE, AZ       CLOUDY    75  52  44 S8        30.20R
GRAND CANYON   MOCLDY    58  52  80 S12G17    30.36R
KINGMAN, AZ    CLEAR     59  55  87 SE3       30.13R
FLAGSTAFF, AZ  CLOUDY    54  52  93 SW3       30.37S

$$

REGIONAL REPORTS    NEVADA/IDAHO/WYOMING

CITY           SKY/WX    TMP DP  RH WIND       PRES   REMARKS
LAS VEGAS, NV  CLEAR     78  52  40 S3        30.03S
ELY, NY        CLOUDY    62  41  46 SE5       30.30S
ELKO, NV       PTCLDY    63  33  32 CALM      30.20R
POCATELLO, ID  CLOUDY    44  37  76 NW5       30.20R
BURLEY, ID     CLEAR     49  43  80 CALM      30.16R
FORT BRIDGER,    N/A     59  30  34 CALM      30.38S
EVANSTON, WY   CLOUDY    57  36  45 SE6       30.36S
ROCK SPRINGS,  CLOUDY    58  34  40 E3        30.34S
KEMMERER, WY     N/A     43  32  65 N9        30.38S

$$




USA.gov is the U.S. government's official web portal to all federal, state and local government web resources and services.